Lapse_Rate
7.1 6.8 6.8 6.4 6.7 6.4 5.0 4.9 4.8 5.2 5.0 5.0 5.3 5.5 5.5 5.4 5.4 5.8 5.9 5.9 6.3 5.9 5.6 5.7 5.8 5.4 5.4 5.5 5.9 5.8 5.8 5.4 5.4 5.4 5.4 5.3 5.3 5.3 5.3 5.3 5.2 5.2 5.2
5.3 5.7 5.9 6.1 6.5 6.4 6.1 5.9 5.2 4.8 5.0 5.0 5.0 5.6 5.5 5.6 5.7 5.7 6.1 5.9 5.8 5.8 5.7 5.9 5.9 5.6 5.4 5.6 5.6 6.0 6.0 5.5 5.4 5.3 5.3 5.4 5.4 5.5 5.5 5.5 5.4 5.3 5.1
4.9 5.2 5.5 5.7 5.7 5.7 5.8 6.1 6.1 5.8 4.8 4.8 4.8 5.0 5.5 5.8 5.7 5.4 5.6 5.9 5.8 6.2 5.9 5.8 6.0 5.8 5.8 5.7 5.8 6.0 6.0 5.8 5.5 5.4 5.1 5.2 5.6 5.7 5.7 5.7 5.5 5.4 5.3
4.5 4.9 4.8 4.8 4.4 4.6 5.2 5.4 6.0 6.0 5.7 4.7 4.4 4.8 5.0 5.6 5.4 6.0 5.7 5.8 5.8 5.9 5.8 5.6 5.9 6.0 5.4 5.9 5.9 5.9 5.9 5.6 5.4 5.4 5.0 5.2 5.5 5.7 5.7 5.7 5.6 5.5 5.4
4.8 4.7 4.9 4.6 4.8 5.2 5.6 5.7 6.0 6.5 6.6 5.7 5.0 4.7 4.8 5.4 5.8 6.1 6.0 5.6 5.7 5.6 5.7 5.9 5.7 5.7 5.9 5.8 5.8 5.8 6.0 6.0 5.5 5.5 5.1 5.2 5.4 5.5 5.4 5.6 5.7 5.6 5.5
4.9 4.7 4.6 5.1 5.0 5.3 5.6 6.1 6.0 6.1 6.5 6.4 5.5 5.0 4.9 5.2 5.7 5.9 5.8 6.0 5.8 5.7 5.9 5.9 5.6 5.5 5.4 5.4 5.7 5.9 5.9 6.1 5.5 5.3 5.2 5.6 5.6 5.5 5.5 5.6 5.5 5.3 5.2
4.8 4.9 4.7 5.2 5.3 5.8 5.5 5.4 5.6 6.1 5.9 5.7 5.6 5.4 5.5 5.4 5.6 6.0 5.9 5.9 5.7 5.3 5.8 5.7 5.5 5.1 5.3 5.5 5.6 5.2 4.6 5.5 5.6 5.6 5.5 5.6 5.5 5.4 5.5 5.7 5.9 5.3 5.1
4.9 5.2 5.2 5.2 5.7 5.9 5.6 5.5 5.5 5.5 6.1 5.7 5.7 5.7 5.6 5.9 5.5 6.0 5.8 6.0 5.9 5.7 5.8 5.7 5.4 5.3 5.4 4.9 5.5 5.4 5.1 4.8 5.2 5.3 5.1 5.3 5.5 5.2 5.3 5.2 5.5 5.3 5.0
5.3 5.2 5.2 5.2 5.4 5.8 5.6 5.7 5.3 5.2 5.6 5.6 6.1 5.7 6.1 6.0 5.8 5.7 5.7 5.7 6.0 5.5 5.3 5.6 5.3 5.3 5.4 4.9 5.2 5.1 5.3 4.5 4.3 4.3 4.7 5.1 5.1 5.2 5.1 5.2 5.3 5.3 5.0
5.4 5.4 5.3 5.2 5.5 5.5 5.3 5.7 5.9 5.7 5.8 6.2 6.1 6.1 6.2 6.1 5.9 5.9 5.6 6.1 5.7 5.6 5.5 5.3 5.0 5.3 5.4 4.8 4.4 4.7 4.5 4.7 4.5 4.4 4.3 4.9 4.9 4.8 5.1 5.2 5.1 5.2 5.2
5.3 5.4 5.2 5.2 5.4 5.4 5.5 5.8 5.6 6.2 6.3 6.1 5.9 6.0 6.3 6.5 6.5 6.3 5.8 5.4 5.4 5.3 5.1 4.6 4.7 4.9 4.9 5.1 4.6 4.7 4.6 4.6 4.9 4.5 4.2 4.3 4.2 4.3 5.0 4.9 5.3 5.2 5.2
5.1 5.2 5.2 5.2 5.1 5.3 5.3 5.4 5.7 6.1 5.9 6.4 6.1 5.8 6.1 6.9 6.4 5.4 5.2 5.5 5.2 5.1 5.3 4.9 5.0 5.1 5.1 5.0 4.9 5.1 4.9 5.0 5.0 5.1 4.6 4.3 4.1 4.6 4.6 4.7 5.3 5.2 5.3
5.0 5.0 5.3 5.4 5.4 5.2 5.1 5.2 5.2 5.5 5.6 5.9 6.1 6.0 5.6 5.4 5.2 5.1 5.2 5.2 5.4 5.1 5.2 5.0 4.9 5.0 5.0 5.0 5.1 5.0 5.2 5.2 5.0 4.6 4.6 4.6 4.3 4.6 5.0 4.9 5.1 5.1 5.2
5.0 5.1 5.3 5.5 5.6 5.7 5.5 5.2 5.2 5.3 5.4 5.4 5.2 5.3 5.3 5.1 5.2 5.3 5.0 5.6 5.5 5.0 5.3 5.4 5.4 5.0 5.2 5.2 5.3 5.2 5.1 5.0 4.8 4.8 4.7 4.6 4.6 4.8 5.1 5.1 5.1 5.0 5.2
4.6 4.7 5.0 5.3 5.5 5.6 5.7 5.6 5.6 5.4 5.2 5.3 5.1 4.9 4.7 5.3 5.2 4.8 5.1 5.2 5.1 4.9 5.1 5.1 5.2 5.1 5.0 5.2 5.3 5.2 5.0 5.0 5.0 5.1 5.0 5.0 4.9 5.0 4.9 5.0 5.2 5.2 5.1
4.7 4.6 4.7 4.9 5.1 5.3 5.4 5.5 5.4 5.3 5.3 5.4 5.5 5.6 5.1 4.9 4.9 5.1 5.1 5.1 5.2 5.2 5.0 4.9 5.1 4.9 5.5 5.1 5.1 4.9 5.1 4.9 4.9 5.1 5.0 5.1 5.3 5.4 5.5 5.4 5.2 5.3 5.3
5.0 4.7 4.7 4.7 4.7 4.9 5.2 5.3 5.5 5.8 5.7 5.4 5.3 5.2 5.4 5.3 5.5 5.4 5.4 5.6 5.4 5.1 5.0 5.1 5.1 5.1 5.0 4.9 5.1 5.1 4.8 4.7 4.7 4.8 4.7 4.8 5.0 5.1 5.1 5.2 5.4 5.4 5.3
5.0 4.9 4.7 4.7 4.7 4.9 5.0 5.1 5.3 5.3 5.2 5.3 5.4 5.5 5.5 5.2 5.1 5.0 5.0 5.0 5.1 5.1 5.2 5.1 5.3 5.3 5.3 5.1 5.0 5.1 5.2 5.2 5.0 4.9 5.1 5.2 5.3 5.2 5.2 5.2 5.2 5.4 5.3
4.8 4.9 5.0 5.1 5.2 5.1 5.0 5.0 5.0 5.1 5.2 5.0 5.1 5.0 5.0 5.2 5.2 5.0 5.0 5.0 5.0 5.0 5.0 5.1 5.2 5.2 5.3 5.2 5.1 5.1 5.3 5.3 5.4 5.4 5.3 5.1 5.2 5.3 5.0 5.0 5.1 5.2 5.5
4.8 4.7 4.8 4.8 4.9 5.0 5.2 5.4 5.5 5.5 5.5 5.4 5.3 5.2 5.2 5.1 5.0 4.9 5.0 5.1 5.0 4.9 5.2 5.1 5.0 4.9 5.0 4.9 4.9 5.0 4.9 4.8 4.9 4.9 5.0 4.9 4.9 5.0 5.0 5.2 5.4 5.9 5.9
4.8 4.8 4.7 4.6 4.6 4.6 4.8 4.8 5.1 5.4 5.5 5.2 4.8 4.9 5.1 5.2 5.1 5.1 5.0 4.9 4.8 4.7 4.7 4.9 5.0 4.8 4.7 4.7 4.7 4.7 4.6 4.6 4.7 4.7 4.7 4.7 4.8 4.9 4.9 5.1 5.3 5.7 6.0
4.6 4.7 4.8 4.8 4.7 4.6 4.5 4.4 4.4 4.6 4.7 4.8 4.8 4.7 4.7 4.7 4.7 4.7 4.7 4.7 4.7 4.8 4.8 4.7 4.6 4.7 4.8 4.8 4.8 4.9 4.8 4.8 4.9 4.9 4.7 4.7 4.6 4.8 4.8 4.8 5.0 5.5 6.3
4.9 4.7 4.7 4.8 4.8 4.8 4.7 4.6 4.5 4.5 4.5 4.4 4.4 4.4 4.5 4.5 4.5 4.5 4.5 4.4 4.4 4.5 4.5 4.5 4.5 4.4 4.4 4.4 4.5 4.5 4.5 4.5 4.6 4.7 4.8 5.0 5.1 5.0 5.1 5.2 5.4 5.9 6.6
5.3 5.3 5.2 5.2 5.1 5.0 4.7 4.6 4.6 4.5 4.5 4.5 4.6 4.6 4.6 4.7 4.6 4.6 4.7 4.6 4.5 4.6 4.5 4.5 4.6 4.6 4.5 4.4 4.5 4.6 4.6 4.7 4.6 4.6 4.6 4.7 4.9 5.0 5.2 5.4 5.9 6.4 6.7
5.5 5.5 5.5 5.4 5.4 5.5 5.3 5.2 4.9 4.6 4.5 4.4 4.4 4.4 4.4 4.4 4.4 4.5 4.6 4.5 4.5 4.5 4.5 4.5 4.6 4.6 4.7 4.7 4.6 4.6 4.7 4.7 4.6 4.6 4.7 4.6 4.8 5.1 5.5 6.0 6.6 6.8 6.5
5.8 5.7 5.6 5.6 5.6 5.6 5.6 5.5 5.4 5.2 5.0 4.7 4.5 4.5 4.5 4.5 4.5 4.6 4.6 4.6 4.7 4.7 4.7 4.7 4.6 4.7 4.8 4.8 4.7 4.7 4.7 4.4 4.3 4.2 4.1 4.3 4.6 5.0 5.6 6.2 6.3 6.5 6.8
Wind_Speed
23 25 25 22 20 19 20 20 18 17 13 11 12 11 12 11 11 12 16 21 23 24 15 11 12 11 12 14 14 12 13 9 9 8 6 6 8 8 8 9 9 10 12
24 27 18 18 16 18 20 19 20 18 14 11 11 11 11 11 12 12 16 21 21 21 14 14 14 16 11 15 15 14 10 9 10 8 8 6 8 9 9 8 8 10 11
22 21 23 11 7 13 16 17 18 17 16 17 10 9 8 10 11 13 12 14 18 21 18 15 14 16 12 11 14 14 15 10 9 12 6 4 6 8 8 11 9 10 8
22 20 18 8 6 9 11 14 16 16 16 18 14 18 14 11 9 10 10 13 19 20 20 16 15 14 12 13 13 12 12 11 10 8 8 6 4 6 5 7 10 10 11
21 21 17 18 7 6 9 11 13 15 16 17 18 14 17 13 10 9 14 14 15 17 17 15 15 14 12 12 14 14 14 9 10 9 8 8 4 5 5 5 7 9 9
22 19 17 18 15 9 9 8 13 15 16 14 20 19 19 16 10 11 8 9 10 11 14 16 14 14 14 13 12 14 16 13 11 8 8 9 8 8 5 5 5 8 8
20 19 21 17 16 18 6 6 12 13 13 11 16 14 19 18 13 12 11 13 11 10 14 15 13 10 12 13 10 10 11 13 12 11 9 10 9 9 8 7 5 4 5
19 20 22 20 19 17 12 2 1 2 10 12 12 12 22 13 14 16 13 9 11 12 15 14 13 11 11 10 9 7 7 10 9 13 10 8 9 7 7 5 4 3 5
19 19 19 15 16 16 14 5 4 3 6 8 10 8 7 8 7 8 10 11 9 9 12 13 12 12 11 10 6 5 7 7 9 10 12 10 8 7 8 7 4 5 5
17 18 17 18 16 16 15 14 11 8 4 10 9 8 10 10 10 10 8 11 10 9 10 10 11 10 8 8 10 10 10 8 10 11 14 12 10 9 7 6 6 6 7
14 14 15 16 16 14 15 14 13 10 9 9 7 6 6 8 8 7 7 9 9 10 13 13 11 12 12 12 10 10 10 10 11 11 10 12 9 7 6 7 6 8 6
14 13 14 15 15 15 15 15 14 12 13 11 12 10 9 9 9 5 4 8 8 8 9 11 9 9 9 10 12 12 9 10 10 8 2 9 7 11 9 7 9 6 7
13 14 14 15 15 14 14 14 14 13 13 12 13 13 12 9 7 8 8 5 8 7 5 7 9 7 6 7 7 7 6 7 7 6 10 11 10 9 7 7 6 5 7
11 13 13 14 14 15 13 14 15 13 12 13 12 11 11 10 9 9 6 8 7 8 6 5 5 4 6 6 8 8 8 7 7 7 6 5 9 11 9 7 8 8 8
8 10 12 12 14 14 13 14 13 14 12 13 12 11 8 9 10 8 8 9 8 7 5 4 3 3 2 2 5 5 5 5 6 7 8 8 9 11 11 8 10 10 9
5 8 8 11 11 13 12 12 12 12 11 13 13 12 12 11 10 10 9 9 9 9 7 8 7 5 4 8 9 4 3 5 7 7 5 7 10 14 16 15 15 13 13
3 4 5 6 7 9 9 11 11 10 12 12 11 11 10 10 10 9 10 10 10 9 9 8 7 6 5 9 9 8 3 3 4 4 4 4 4 6 3 1 1 3 3
3 1 2 3 5 6 6 7 8 9 9 10 11 10 10 9 9 9 9 9 7 6 5 6 5 4 5 9 7 5 3 3 2 2 3 4 4 4 4 6 6 5 4
4 3 1 1 1 3 4 5 7 7 8 9 9 8 8 7 8 8 7 6 6 6 6 4 5 5 5 9 7 5 3 4 5 3 3 3 3 5 9 6 5 6 3
6 5 4 3 2 2 3 4 6 6 8 8 7 7 7 8 8 7 6 5 5 4 3 4 5 6 6 7 9 7 4 5 4 5 5 6 6 7 10 5 3 4 3
8 7 6 4 3 1 1 3 3 5 4 4 5 6 7 7 6 6 5 5 6 5 5 6 6 6 5 6 7 8 5 5 6 6 6 5 7 9 12 11 6 6 6
7 8 6 6 5 3 3 3 2 1 2 2 3 4 4 4 4 5 4 4 4 5 5 5 5 5 7 5 7 9 6 7 7 8 7 7 7 10 12 10 11 9 11
9 8 8 6 5 5 5 4 3 2 0 1 2 3 3 4 4 5 5 4 5 5 5 4 5 5 6 6 5 8 10 8 6 7 8 11 10 11 10 15 14 13 6
10 10 9 8 8 7 6 4 3 2 2 2 2 2 3 3 4 3 3 3 3 3 3 4 5 6 6 6 7 8 9 12 9 8 7 8 10 9 9 8 11 7 7
10 9 9 9 9 8 8 7 6 5 4 3 2 1 1 2 2 3 3 3 2 4 4 4 5 6 6 7 12 11 8 8 10 12 6 4 3 5 5 5 6 5 6
10 10 10 9 9 9 8 8 8 7 5 4 3 2 2 1 3 4 4 2 3 6 5 4 5 6 10 15 16 16 17 18 18 7 6 6 6 6 6 7 7 6 10
Wind_Direction
310 301 289 278 261 238 234 215 210 209 206 214 205 211 209 212 195 200 190 186 185 185 194 191 180 187 194 196 196 194 192 202 204 197 209 218 223 224 222 222 226 218 218
322 323 305 279 239 229 223 219 213 203 209 207 216 205 212 208 202 185 190 185 185 185 191 187 187 188 194 200 197 195 192 197 196 201 198 212 214 225 222 221 223 222 214
327 330 322 308 246 218 217 217 214 211 209 204 207 211 198 202 196 192 185 184 182 182 189 195 194 193 193 195 195 193 191 191 191 212 200 207 228 203 205 219 219 218 214
336 335 325 295 261 236 225 224 220 217 214 208 207 204 203 202 202 181 175 181 185 189 191 194 196 193 194 191 193 194 196 193 194 198 239 273 301 207 194 217 215 219 220
344 342 6 5 305 240 217 215 221 219 215 211 208 206 207 208 184 183 183 186 192 190 189 192 194 195 194 195 191 189 195 198 206 199 197 224 240 254 254 217 207 217 220
343 348 359 1 354 311 224 216 223 223 217 216 212 203 200 201 193 192 186 186 187 188 192 191 193 193 194 190 196 197 192 194 206 202 211 213 212 215 219 243 236 227 214
350 351 1 356 346 339 242 238 220 211 209 217 210 199 199 196 184 181 189 185 190 189 193 188 191 193 195 196 185 190 204 197 198 209 214 225 231 241 234 232 217 212 197
349 354 355 350 346 353 14 33 124 352 199 191 191 190 194 176 191 189 183 198 199 192 187 182 182 180 182 181 181 193 198 214 209 214 216 225 230 224 221 218 187 202 234
349 348 347 349 348 354 357 321 101 104 183 197 187 199 163 147 158 175 188 185 176 176 174 172 170 167 174 176 185 183 205 214 218 221 219 224 227 221 222 213 182 202 230
348 349 351 349 349 358 352 4 6 30 102 177 168 179 179 175 175 170 162 177 172 155 163 169 168 157 165 168 178 205 212 208 224 221 220 220 227 228 223 214 223 219 230
354 350 352 352 353 4 3 3 10 21 50 84 110 130 158 166 174 157 172 187 183 177 184 186 181 170 175 187 198 209 212 214 221 217 225 226 232 223 211 215 211 218 224
356 2 5 6 4 7 5 8 4 29 42 69 80 85 86 78 71 73 166 156 166 154 173 164 156 143 154 165 191 191 185 205 222 235 199 236 225 223 218 209 213 209 225
358 6 12 14 16 12 14 14 11 26 42 48 55 54 55 61 55 68 71 105 111 106 107 161 170 177 184 188 192 193 193 211 218 207 210 214 208 216 206 206 220 217 235
2 0 9 11 16 19 18 20 22 22 39 51 53 50 46 49 53 49 50 57 64 81 73 92 109 144 171 180 194 198 191 200 210 211 212 221 218 226 219 210 224 231 234
4 3 0 6 9 15 22 28 30 24 33 49 45 46 49 54 53 53 59 65 60 57 47 67 86 132 157 186 180 188 193 198 208 209 206 211 221 226 224 222 231 223 225
2 360 3 5 8 7 9 23 29 34 37 46 48 46 51 53 51 42 50 61 61 60 53 47 51 43 42 11 357 268 222 226 226 231 232 231 229 235 235 233 226 212 219
342 358 2 4 4 1 357 13 21 27 39 42 42 46 50 53 52 57 57 53 54 55 54 49 50 56 48 19 21 358 325 282 267 256 243 232 223 208 228 197 332 12 330
220 298 352 356 1 358 11 21 24 38 43 47 41 33 40 43 50 58 56 56 55 62 67 58 57 71 51 28 24 19 17 350 321 318 325 309 303 291 205 164 150 151 93
200 205 246 286 353 11 11 22 36 44 49 46 47 46 48 54 53 50 47 46 48 38 48 43 46 36 42 19 23 352 321 311 302 280 255 240 260 254 230 216 171 165 163
196 197 206 214 255 17 6 49 45 40 40 29 31 38 45 48 52 50 52 49 52 51 41 47 36 30 24 31 10 353 320 311 302 287 272 239 235 224 212 219 200 210 213
196 194 197 213 202 205 321 40 50 56 26 34 44 43 41 42 40 46 30 32 34 36 28 26 24 21 15 10 357 354 330 315 313 303 297 283 245 236 219 211 198 213 159
195 201 206 204 201 203 211 179 121 12 9 39 66 59 44 45 45 54 57 44 30 36 33 11 7 11 1 12 358 335 318 316 300 296 296 297 262 244 238 224 228 211 170
205 203 210 210 205 208 221 211 165 177 173 138 70 59 62 46 40 39 28 23 25 23 14 5 351 343 341 339 346 335 339 322 303 292 290 286 277 259 244 231 223 209 187
209 197 203 214 214 208 212 233 188 189 194 127 75 50 48 33 29 28 23 6 20 10 341 335 327 325 324 328 336 335 330 325 319 323 310 296 285 270 261 251 226 210 193
213 211 215 218 222 205 206 200 198 199 200 184 171 155 68 33 8 3 350 334 344 360 328 322 322 317 317 329 333 329 322 318 313 313 294 286 268 261 251 239 225 205 194
205 208 219 226 230 218 208 199 196 199 200 200 199 190 200 283 327 320 309 154 297 335 332 339 344 325 317 324 324 327 322 316 313 302 284 275 266 257 253 243 237 215 209